Location: Chevoux
(46.3801°N, 4.9476°E)
Time: 03:05:20
(UTC+00:00)

ISS - Pass Details

Date: 01 December 2021
Orbit: 413 x 422 km, 51.6° (Epoch: 22 January)

Event Time Altitude Azimuth Distance (km) Brightness Sun altitude
Rises 17:34:59 0° 294° (WNW) 2,385 0.9 -16.6°
Reaches altitude 10° 17:37:10 10° 302° (WNW) 1,516 -0.3 -17.0°
Maximum altitude 17:40:25 40° 13° (NNE) 639 -3.1 -17.5°
Enters shadow 17:40:39 39° 26° (NNE) 647 -3.2 -17.5°
